TimeCST,TemperatureF,Dew PointF,Humidity,Sea Level PressureIn,VisibilityMPH,Wind Direction,Wind SpeedMPH,Gust SpeedMPH,PrecipitationIn,Events,Conditions,WindDirDegrees,DateUTC
12:15 AM,15.8,6.8,68,30.11,10.0,NW,6.9,-,N/A,,Overcast,310,2013-01-01 06:15:00
12:35 AM,14.0,5.0,67,30.11,10.0,NW,6.9,-,N/A,,Scattered Clouds,310,2013-01-01 06:35:00
12:55 AM,12.2,5.0,73,30.12,10.0,WNW,6.9,-,N/A,,Clear,300,2013-01-01 06:55:00
1:15 AM,12.2,5.0,73,30.12,10.0,WNW,6.9,-,N/A,,Clear,300,2013-01-01 07:15:00
1:35 AM,12.2,5.0,73,30.12,10.0,WNW,5.8,-,N/A,,Clear,290,2013-01-01 07:35:00
1:55 AM,12.2,6.8,79,30.11,10.0,WNW,9.2,-,N/A,,Clear,300,2013-01-01 07:55:00
2:15 AM,12.2,5.0,73,30.12,10.0,WNW,9.2,-,N/A,,Clear,300,2013-01-01 08:15:00
2:35 AM,12.2,5.0,73,30.12,10.0,NW,8.1,-,N/A,,Clear,310,2013-01-01 08:35:00
2:55 AM,12.2,5.0,73,30.11,10.0,NW,6.9,-,N/A,,Clear,310,2013-01-01 08:55:00
3:15 AM,12.2,5.0,73,30.11,10.0,NW,9.2,-,N/A,,Clear,310,2013-01-01 09:15:00
3:35 AM,12.2,3.2,67,30.12,10.0,NW,9.2,-,N/A,,Clear,310,2013-01-01 09:35:00
3:55 AM,12.2,5.0,73,30.12,10.0,NW,8.1,-,N/A,,Clear,320,2013-01-01 09:55:00
4:15 AM,12.2,5.0,73,30.12,10.0,NW,10.4,-,N/A,,Clear,320,2013-01-01 10:15:00
4:35 AM,12.2,3.2,67,30.12,10.0,NW,9.2,-,N/A,,Partly Cloudy,320,2013-01-01 10:35:00
4:55 AM,12.2,3.2,67,30.12,10.0,NW,8.1,-,N/A,,Clear,320,2013-01-01 10:55:00
5:15 AM,12.2,3.2,67,30.13,10.0,NW,5.8,-,N/A,,Clear,320,2013-01-01 11:15:00
5:35 AM,12.2,3.2,67,30.13,10.0,NW,8.1,-,N/A,,Clear,320,2013-01-01 11:35:00
5:55 AM,12.2,3.2,67,30.14,10.0,NW,8.1,-,N/A,,Clear,320,2013-01-01 11:55:00
6:15 AM,12.2,5.0,73,30.15,10.0,NW,9.2,-,N/A,,Clear,310,2013-01-01 12:15:00
6:35 AM,10.4,5.0,79,30.15,10.0,NW,6.9,-,N/A,,Clear,310,2013-01-01 12:35:00
6:55 AM,10.4,5.0,79,30.15,10.0,NW,5.8,-,N/A,,Clear,310,2013-01-01 12:55:00
7:15 AM,10.4,3.2,73,30.14,10.0,NW,8.1,-,N/A,,Clear,310,2013-01-01 13:15:00
7:35 AM,10.4,3.2,73,30.15,10.0,NW,8.1,-,N/A,,Clear,310,2013-01-01 13:35:00
7:55 AM,10.4,5.0,79,30.15,10.0,NW,8.1,-,N/A,,Clear,310,2013-01-01 13:55:00
8:15 AM,12.2,3.2,67,30.16,10.0,NW,8.1,-,N/A,,Clear,310,2013-01-01 14:15:00
8:35 AM,12.2,3.2,67,30.16,10.0,NW,9.2,-,N/A,,Clear,310,2013-01-01 14:35:00
9:15 AM,12.2,5.0,73,30.17,10.0,WNW,8.1,-,N/A,,Scattered Clouds,300,2013-01-01 15:15:00
9:35 AM,14.0,3.2,62,30.17,10.0,WNW,9.2,-,N/A,,Mostly Cloudy,300,2013-01-01 15:35:00
9:55 AM,14.0,3.2,62,30.17,10.0,WNW,9.2,-,N/A,,Mostly Cloudy,300,2013-01-01 15:55:00
10:15 AM,14.0,3.2,62,30.16,10.0,NW,6.9,-,N/A,,Mostly Cloudy,310,2013-01-01 16:15:00
10:35 AM,14.0,3.2,62,30.15,10.0,NW,9.2,-,N/A,,Mostly Cloudy,310,2013-01-01 16:35:00
11:15 AM,14.0,5.0,67,30.12,10.0,West,6.9,-,N/A,,Scattered Clouds,280,2013-01-01 17:15:00
11:35 AM,14.0,3.2,62,30.11,10.0,West,8.1,-,N/A,,Clear,280,2013-01-01 17:35:00
11:55 AM,14.0,5.0,67,30.10,10.0,West,6.9,-,N/A,,Clear,270,2013-01-01 17:55:00
12:15 PM,15.8,3.2,58,30.09,10.0,West,8.1,-,N/A,,Clear,270,2013-01-01 18:15:00
12:35 PM,14.0,3.2,62,30.09,10.0,West,6.9,-,N/A,,Partly Cloudy,280,2013-01-01 18:35:00
1:15 PM,15.8,5.0,62,30.07,10.0,West,6.9,-,N/A,,Clear,280,2013-01-01 19:15:00
1:35 PM,15.8,3.2,58,30.06,10.0,West,12.7,-,N/A,,Clear,260,2013-01-01 19:35:00
1:55 PM,15.8,3.2,58,30.06,10.0,WSW,12.7,-,N/A,,Clear,250,2013-01-01 19:55:00
2:15 PM,15.8,3.2,58,30.06,10.0,WSW,11.5,-,N/A,,Clear,250,2013-01-01 20:15:00
2:35 PM,15.8,3.2,58,30.06,10.0,West,10.4,-,N/A,,Clear,270,2013-01-01 20:35:00
2:55 PM,15.8,3.2,58,30.06,10.0,WSW,12.7,-,N/A,,Clear,250,2013-01-01 20:55:00
3:15 PM,14.0,3.2,62,30.06,10.0,WSW,11.5,-,N/A,,Clear,240,2013-01-01 21:15:00
3:35 PM,14.0,1.4,57,30.05,10.0,WSW,10.4,-,N/A,,Clear,240,2013-01-01 21:35:00
3:55 PM,14.0,1.4,57,30.06,10.0,WSW,9.2,-,N/A,,Clear,240,2013-01-01 21:55:00
4:15 PM,12.2,1.4,62,30.06,10.0,WSW,11.5,-,N/A,,Clear,240,2013-01-01 22:15:00
4:35 PM,12.2,1.4,62,30.05,10.0,WSW,11.5,-,N/A,,Clear,240,2013-01-01 22:35:00
4:55 PM,12.2,1.4,62,30.05,10.0,WSW,10.4,-,N/A,,Clear,240,2013-01-01 22:55:00
5:15 PM,12.2,1.4,62,30.05,10.0,WSW,10.4,-,N/A,,Clear,240,2013-01-01 23:15:00
5:35 PM,12.2,1.4,62,30.05,10.0,WSW,11.5,-,N/A,,Clear,250,2013-01-01 23:35:00
5:55 PM,12.2,1.4,62,30.05,10.0,WSW,10.4,-,N/A,,Clear,250,2013-01-01 23:55:00
6:15 PM,12.2,1.4,62,30.05,10.0,WSW,11.5,-,N/A,,Clear,250,2013-01-02 00:15:00
6:35 PM,12.2,1.4,62,30.05,10.0,West,13.8,17.3,N/A,,Clear,260,2013-01-02 00:35:00
6:55 PM,12.2,1.4,62,30.05,10.0,West,12.7,-,N/A,,Clear,260,2013-01-02 00:55:00
7:15 PM,12.2,-0.4,57,30.05,10.0,West,13.8,17.3,N/A,,Clear,260,2013-01-02 01:15:00
7:35 PM,10.4,-0.4,62,30.05,10.0,West,12.7,-,N/A,,Clear,260,2013-01-02 01:35:00
7:55 PM,10.4,-0.4,62,30.05,10.0,West,10.4,-,N/A,,Clear,260,2013-01-02 01:55:00
8:15 PM,10.4,-0.4,62,30.04,10.0,West,11.5,-,N/A,,Clear,260,2013-01-02 02:15:00
8:35 PM,10.4,-0.4,62,30.05,10.0,West,9.2,16.1,N/A,,Clear,270,2013-01-02 02:35:00
8:55 PM,10.4,-0.4,62,30.04,10.0,West,9.2,-,N/A,,Clear,270,2013-01-02 02:55:00
9:35 PM,10.4,-0.4,62,30.04,10.0,West,6.9,-,N/A,,Clear,270,2013-01-02 03:35:00
9:55 PM,10.4,1.4,67,30.04,10.0,West,8.1,-,N/A,,Clear,270,2013-01-02 03:55:00
10:15 PM,10.4,1.4,67,30.04,10.0,West,9.2,-,N/A,,Mostly Cloudy,260,2013-01-02 04:15:00
10:55 PM,10.4,3.2,73,30.04,10.0,West,9.2,-,N/A,,Overcast,260,2013-01-02 04:55:00
11:15 PM,12.2,3.2,67,30.04,10.0,West,11.5,-,N/A,,Overcast,270,2013-01-02 05:15:00
11:55 PM,12.2,5.0,73,30.03,10.0,West,11.5,-,N/A,,Overcast,270,2013-01-02 05:55:00